Date String (YYYY-MM-DD hh:mm:ss) UTC,Instrument flags,Ambient pressure (hPa),Sample flow (lpm),Bypass flow (lpm),Sample temperature (°C),Ambient temperature (°C),ASC tube jacket temperature (°C),LED temperature (°C),Box temperature (°C),Sample RH (%),Span deviation,Mass concentration (μg/m³),Mass concentration (μg/m³),Mass concentration (μg/m³)
DateTimeUTC,F1_M11,P_M11,Q1_M11,Q2_M11,T1_M11,T2_M11,T3_M11,T4_M11,T5_M11,U1_M11,ZSPAN_M11,X2_M11,X0_M11,X1_M11
2023-02-06 11:00:00,,0814.9,5.00,0.00,22.2,20.6,00.0,31.2,24.0,14.0,0000.0,0003.43,0005.70,0002.93
2023-02-06 11:01:00,,0814.9,4.98,0.00,22.2,20.7,00.0,31.2,24.0,13.9,0000.0,0003.46,0005.76,0003.01
2023-02-06 11:02:00,,0815.0,4.99,0.00,22.2,20.7,00.0,31.2,24.0,13.9,0000.0,0003.42,0005.70,0002.97
2023-02-06 11:03:00,,0815.1,5.01,0.00,22.2,20.7,00.0,31.2,24.0,13.7,0000.0,0003.27,0005.46,0002.72
2023-02-06 11:04:00,,0815.0,5.04,0.00,22.2,20.7,00.0,31.2,24.0,13.9,0000.0,0003.15,0005.22,0002.54
2023-02-06 11:05:00,,0815.0,4.99,0.00,22.2,20.7,00.0,31.1,24.0,13.9,0000.0,0003.00,0004.90,0002.37
2023-02-06 11:06:00,,0815.0,4.98,0.00,22.2,20.8,00.0,31.1,24.0,13.9,0000.0,0002.82,0004.63,0002.21
2023-02-06 11:07:00,,0815.0,4.97,0.00,22.3,21.6,00.0,31.1,24.2,13.7,0000.0,0002.75,0004.65,0002.14
2023-02-06 11:08:00,,0815.0,5.02,0.00,22.4,22.6,00.0,31.1,24.4,13.7,0000.0,0002.64,0004.41,0002.06
2023-02-06 11:09:00,,0815.1,5.02,0.00,22.5,23.0,00.0,31.1,24.6,13.7,0000.0,0002.64,0004.35,0002.03
2023-02-06 11:10:00,,0815.0,4.98,0.00,22.5,22.6,00.0,31.2,24.5,13.7,0000.0,0002.60,0004.21,0002.03
2023-02-06 11:11:00,,0815.0,4.99,0.00,22.6,22.3,00.0,31.2,24.5,13.7,0000.0,0002.57,0004.20,0002.01
2023-02-06 11:12:00,,0814.9,5.00,0.00,22.6,22.0,00.0,31.3,24.5,13.6,0000.0,0002.54,0004.18,0001.98
2023-02-06 11:13:00,,0814.9,5.05,0.00,22.6,21.8,00.0,31.3,24.4,13.4,0000.0,0002.47,0004.00,0001.94
2023-02-06 11:14:00,,0814.9,4.98,0.00,22.6,21.6,00.0,31.3,24.4,12.8,0000.0,0002.43,0003.86,0001.91
2023-02-06 11:15:00,,0815.0,4.98,0.00,22.6,21.4,00.0,31.3,24.4,12.4,0000.0,0002.40,0003.72,0001.88
2023-02-06 11:16:00,,0814.9,5.03,0.00,22.5,21.3,00.0,31.3,24.3,12.3,0000.0,0002.33,0003.58,0001.84
2023-02-06 11:17:00,,0814.9,5.02,0.00,22.5,21.2,00.0,31.3,24.3,12.4,0000.0,0002.33,0003.64,0001.83
2023-02-06 11:18:00,,0814.9,4.95,0.00,22.5,21.1,00.0,31.4,24.3,12.5,0000.0,0002.36,0003.70,0001.82
2023-02-06 11:19:00,,0814.9,4.98,0.00,22.5,21.0,00.0,31.4,24.2,12.6,0000.0,0002.40,0003.80,0001.83
2023-02-06 11:20:00,,0814.9,5.03,0.00,22.5,20.9,00.0,31.3,24.2,12.8,0000.0,0002.38,0003.73,0001.86
2023-02-06 11:21:00,,0814.9,4.95,0.00,22.5,20.8,00.0,31.3,24.2,13.4,0000.0,0002.55,0003.88,0002.01
2023-02-06 11:22:00,,0814.9,5.00,0.00,22.4,20.7,00.0,31.3,24.1,12.5,0000.0,0002.60,0003.89,0002.07
2023-02-06 11:23:00,,0814.9,5.02,0.00,22.4,20.8,00.0,31.3,24.1,12.3,0000.0,0002.56,0003.80,0002.04
2023-02-06 11:24:00,,0814.9,5.02,0.00,22.4,20.9,00.0,31.3,24.1,12.4,0000.0,0002.58,0003.78,0002.03
2023-02-06 11:25:00,,0814.9,5.00,0.00,22.4,20.9,00.0,31.3,24.2,12.9,0000.0,0002.68,0003.87,0002.11
2023-02-06 11:26:00,,0814.9,4.98,0.00,22.4,20.9,00.0,31.3,24.2,13.0,0000.0,0002.83,0004.15,0002.21
2023-02-06 11:27:00,,0814.9,5.00,0.00,22.4,20.9,00.0,31.3,24.2,12.9,0000.0,0002.92,0004.26,0002.30
2023-02-06 11:28:00,,0814.9,5.03,0.00,22.4,20.9,00.0,31.3,24.1,12.1,0000.0,0002.92,0004.19,0002.33
2023-02-06 11:29:00,,0815.0,5.02,0.00,22.4,20.8,00.0,31.3,24.1,12.5,0000.0,0002.97,0004.32,0002.37
2023-02-06 11:30:00,,0815.1,5.00,0.00,22.3,20.7,00.0,31.3,24.0,12.7,0000.0,0003.02,0004.48,0002.41
2023-02-06 11:31:00,,0815.1,4.96,0.00,22.3,20.8,00.0,31.3,24.0,12.5,0000.0,0003.01,0004.48,0002.40
2023-02-06 11:32:00,,0815.0,4.99,0.00,22.3,20.9,00.0,31.3,24.0,12.6,0000.0,0002.88,0004.33,0002.27
2023-02-06 11:33:00,,0815.3,5.02,0.00,22.3,20.9,00.0,31.2,24.1,12.0,0000.0,0002.73,0004.13,0002.15
2023-02-06 11:34:00,,0814.9,5.02,0.00,22.3,20.9,00.0,31.2,24.1,11.3,0000.0,0002.68,0004.05,0002.11
2023-02-06 11:35:00,,0814.9,5.00,0.00,22.3,20.9,00.0,31.2,24.1,11.3,0000.0,0002.57,0003.87,0002.05
2023-02-06 11:36:00,,0814.9,4.97,0.00,22.3,20.9,00.0,31.2,24.1,11.2,0000.0,0002.41,0003.64,0001.92
2023-02-06 11:37:00,,0814.9,4.98,0.00,22.3,20.9,00.0,31.2,24.1,11.1,0000.0,0002.19,0003.32,0001.75
2023-02-06 11:38:00,,0814.9,5.03,0.00,22.3,20.9,00.0,31.2,24.1,10.8,0000.0,0001.99,0003.03,0001.58
2023-02-06 11:39:00,,0815.0,5.03,0.00,22.3,20.9,00.0,31.2,24.1,10.6,0000.0,0001.89,0003.07,0001.47
2023-02-06 11:40:00,,0814.9,4.98,0.00,22.3,20.9,00.0,31.2,24.1,10.8,0000.0,0001.71,0002.82,0001.36
2023-02-06 11:41:00,,0815.0,4.97,0.00,22.3,20.9,00.0,31.2,24.1,10.3,0000.0,0001.52,0002.63,0001.23
2023-02-06 11:42:00,,0814.9,4.99,0.00,22.3,20.9,00.0,31.2,24.1,10.4,0000.0,0001.35,0002.90,0001.09
2023-02-06 11:43:00,,0814.9,5.02,0.00,22.3,20.9,00.0,31.2,24.1,09.9,0000.0,0001.21,0002.69,0000.96
2023-02-06 11:44:00,,0814.9,5.00,0.00,22.3,20.9,00.0,31.2,24.1,09.6,0000.0,0001.08,0002.50,0000.85
2023-02-06 11:45:00,,0814.9,4.97,0.00,22.3,20.9,00.0,31.2,24.1,09.9,0000.0,0001.02,0002.48,0000.79
2023-02-06 11:46:00,,0814.9,4.97,0.00,22.3,20.9,00.0,31.2,24.1,10.3,0000.0,0001.01,0002.49,0000.76
2023-02-06 11:47:00,,0814.8,4.97,0.00,22.3,20.9,00.0,31.2,24.1,09.8,0000.0,0000.96,0002.46,0000.72
2023-02-06 11:48:00,,0814.9,5.02,0.00,22.3,20.9,00.0,31.2,24.1,09.7,0000.0,0000.90,0002.39,0000.68
2023-02-06 11:49:00,,0814.8,5.01,0.00,22.3,20.9,00.0,31.2,24.0,09.6,0000.0,0000.85,0002.30,0000.63
2023-02-06 11:50:00,,0814.8,5.00,0.00,22.3,20.9,00.0,31.2,24.0,09.4,0000.0,0000.83,0002.19,0000.60
2023-02-06 11:51:00,,0814.9,4.96,0.00,22.3,20.9,00.0,31.2,24.1,09.4,0000.0,0000.78,0001.97,0000.57
2023-02-06 11:52:00,,0814.8,5.04,0.00,22.3,20.9,00.0,31.2,24.1,09.4,0000.0,0000.71,0001.78,0000.52
2023-02-06 11:53:00,,0814.8,4.98,0.00,22.3,20.8,00.0,31.1,24.1,09.5,0000.0,0000.67,0001.02,0000.50
2023-02-06 11:54:00,,0814.9,5.03,0.00,22.3,20.8,00.0,31.1,24.1,09.5,0000.0,0000.63,0000.94,0000.48
2023-02-06 11:55:00,,0814.9,4.99,0.00,22.3,20.8,00.0,31.1,24.0,09.5,0000.0,0000.62,0001.02,0000.47
2023-02-06 11:56:00,,0814.9,4.98,0.00,22.3,20.8,00.0,31.1,24.1,09.6,0000.0,0000.61,0001.05,0000.47
2023-02-06 11:57:00,,0814.9,4.99,0.00,22.3,20.8,00.0,31.1,24.1,09.7,0000.0,0000.59,0001.01,0000.46
2023-02-06 11:58:00,,0814.9,5.02,0.00,22.3,20.8,00.0,31.1,24.0,09.7,0000.0,0000.57,0000.97,0000.45
2023-02-06 11:59:00,,0814.9,5.02,0.00,22.3,20.8,00.0,31.1,24.0,09.8,0000.0,0000.57,0000.96,0000.46
